Temp
22 23 23 23 23 23 23 23 22 22 23 22 22 22 22 21 21 21 21 21 21 21 21 20 20 20 20 20 19 19 20 20 20 20 20 19 19 19 19 19 20 20 20 20 20 20 20 20 20 20 20 20 20 20 20 20 20 20 20 20 20 20 20
21 22 22 23 23 23 23 23 23 23 23 22 22 22 22 22 22 22 22 22 21 21 21 21 21 20 20 20 20 19 19 20 20 19 19 19 19 19 19 19 20 20 20 20 20 20 20 20 20 19 19 20 20 20 20 20 20 20 20 20 20 20 20
20 20 21 22 23 23 23 23 23 23 23 23 22 22 22 22 22 22 22 22 22 22 22 22 22 21 21 20 20 20 19 20 20 19 19 19 20 19 19 19 19 20 20 20 20 20 20 20 20 19 19 19 20 20 20 20 20 20 20 20 21 20 20
20 20 20 20 20 21 22 23 23 23 23 23 23 22 22 22 22 22 22 22 22 22 22 22 22 22 21 21 21 20 20 20 20 20 20 20 20 20 19 19 19 20 20 20 20 20 20 20 20 20 19 19 19 20 20 20 20 20 20 20 20 21 21
20 20 20 20 19 18 19 22 23 23 23 23 23 23 23 22 22 22 22 22 22 22 22 22 22 22 21 21 21 21 20 20 20 20 20 20 20 20 20 20 20 20 20 20 20 20 20 20 20 20 20 20 20 20 20 20 20 20 20 20 20 21 21
20 20 20 20 20 20 19 19 21 22 22 23 23 23 23 22 22 22 22 22 22 22 22 22 22 22 22 21 21 21 21 21 20 20 20 20 20 20 21 21 21 20 20 20 20 20 20 20 20 20 20 20 20 20 20 20 20 20 20 20 20 21 21
19 19 20 20 21 21 20 19 19 20 22 23 23 23 22 22 22 21 21 21 21 22 22 22 22 22 22 21 21 21 21 21 21 21 21 20 20 20 21 21 21 21 20 20 20 20 20 20 20 20 20 20 20 20 20 20 20 20 20 21 20 21 21
18 18 18 19 20 21 20 19 19 19 20 22 23 23 22 23 22 21 20 20 20 20 20 21 22 22 22 22 21 21 21 21 21 21 21 21 21 21 21 21 21 21 20 20 20 20 20 20 20 20 20 20 20 20 20 20 20 20 20 20 20 20 20
17 17 17 17 18 19 20 20 19 19 19 20 22 23 23 23 22 21 21 21 20 20 20 19 20 20 21 22 22 21 21 21 21 21 21 21 21 21 21 21 21 20 20 20 20 20 20 20 20 20 20 20 20 20 20 20 20 20 20 20 20 20 20
17 17 17 17 17 18 18 19 20 20 19 19 20 21 22 23 22 21 21 21 20 20 20 20 20 19 20 21 21 21 21 21 21 21 21 21 21 21 21 21 20 20 20 20 20 20 20 20 20 20 20 20 20 20 20 20 20 20 20 20 20 20 20
16 16 17 17 17 17 17 18 19 20 20 19 19 20 21 22 22 22 21 21 21 21 20 21 21 21 20 19 20 21 21 21 21 21 21 21 21 21 21 21 20 20 20 20 20 20 20 20 20 20 20 21 20 20 20 20 20 20 20 20 20 20 20
16 16 17 17 17 17 17 18 18 19 20 20 19 19 20 21 22 22 21 21 21 21 21 20 21 21 21 19 19 19 20 20 20 20 20 20 21 21 21 20 20 20 20 20 20 21 21 21 20 20 20 21 21 20 20 20 20 20 20 20 20 20 20
15 16 16 16 16 16 16 17 18 18 19 20 19 19 20 20 21 22 21 21 21 21 21 21 20 21 21 21 20 19 19 19 19 19 20 20 20 20 20 20 20 20 20 20 21 21 21 21 20 20 20 20 21 20 20 20 20 20 20 20 20 20 20
16 16 16 16 16 16 16 16 17 18 18 18 19 19 19 20 20 21 21 21 22 21 21 20 20 20 21 21 21 19 18 19 20 20 20 20 20 20 20 20 20 20 20 20 21 21 21 20 20 20 20 20 20 21 21 20 20 20 20 20 20 20 20
15 15 15 16 16 16 16 16 17 17 18 18 18 19 19 19 20 20 21 21 21 21 20 19 20 20 20 21 22 20 19 19 20 20 20 20 20 20 20 21 20 20 20 21 21 21 21 20 20 20 20 20 20 20 20 20 20 20 20 20 20 20 20
15 15 15 15 15 16 16 16 16 17 18 18 18 18 18 18 19 20 20 21 21 20 20 20 20 20 20 21 21 20 19 19 20 20 20 20 20 20 20 20 20 20 20 21 21 21 21 20 20 20 20 21 20 20 20 20 20 20 20 20 20 20 20
15 15 15 15 15 15 16 16 16 16 17 17 17 17 18 17 18 19 20 20 20 19 20 20 20 20 20 21 21 20 19 19 20 20 20 20 20 20 20 20 20 20 20 20 21 21 20 20 20 20 21 21 21 20 20 21 20 20 21 20 20 20 20
15 15 15 15 15 15 15 16 16 16 17 17 17 19 19 18 17 18 19 19 19 19 19 19 19 20 20 21 21 20 19 20 20 20 20 20 20 20 20 20 20 20 20 20 20 20 20 20 20 20 20 20 20 20 21 21 21 21 21 21 20 20 20
15 15 15 15 15 15 15 16 16 16 16 17 17 18 19 17 17 18 18 18 19 19 18 18 18 19 20 20 20 20 20 20 20 20 20 20 20 20 19 20 20 20 20 20 20 20 20 20 20 20 20 20 20 20 20 20 21 21 21 21 20 20 20
15 15 15 15 15 15 15 15 15 15 16 17 17 17 17 16 17 18 18 18 18 18 18 18 18 18 19 19 20 20 20 20 20 20 20 20 20 20 20 20 20 20 20 20 20 20 20 20 20 20 20 20 20 20 20 20 20 21 21 20 20 20 20
15 15 15 15 15 15 15 15 15 15 16 16 17 17 17 17 17 17 18 18 18 18 18 18 18 18 18 19 19 19 20 20 20 20 20 20 20 20 20 20 20 19 19 20 20 20 20 20 20 20 19 19 19 20 20 20 20 20 20 20 20 20 20
15 15 15 15 16 15 15 15 15 15 16 16 16 17 17 18 18 17 17 17 17 18 18 18 18 18 18 19 19 19 20 20 20 20 20 20 20 20 20 19 19 19 19 19 19 19 19 19 19 19 19 19 19 19 19 19 20 20 20 20 20 20 20
14 14 15 15 15 15 15 14 15 15 15 16 16 16 17 17 18 17 17 17 17 18 18 18 18 19 19 19 20 19 19 20 20 19 19 19 19 19 19 19 19 18 18 19 19 19 19 19 18 18 18 18 19 19 19 19 19 19 19 19 19 19 19
14 14 15 15 15 15 14 14 15 15 15 16 16 16 16 17 17 17 17 17 17 18 18 18 18 19 19 19 19 19 19 19 19 19 18 18 18 18 18 18 18 18 18 18 18 18 18 18 18 18 18 18 18 18 18 18 18 18 18 19 19 19 19
14 14 14 15 15 14 14 14 14 15 15 15 15 15 16 16 16 16 16 16 16 17 18 18 18 18 18 18 18 18 18 18 18 18 18 18 18 18 18 18 18 18 18 18 18 17 17 17 17 17 17 17 17 18 18 18 18 18 18 18 18 18 19
14 14 14 14 14 14 14 14 14 15 15 15 15 15 15 15 16 16 15 15 16 16 16 16 17 17 17 17 18 18 18 18 18 18 17 17 17 17 17 17 17 17 17 17 17 17 17 17 17 17 17 17 17 17 17 17 17 17 18 18 18 18 18
14 14 14 14 14 14 14 14 14 15 14 14 14 15 15 15 16 15 15 15 15 15 15 15 15 16 16 16 17 17 17 16 17 17 17 17 16 16 16 16 16 16 17 17 17 17 17 17 17 17 17 17 17 17 17 17 17 17 17 17 17 17 18
14 14 14 14 14 14 14 14 14 14 14 14 14 14 15 15 15 15 14 14 14 14 14 14 14 15 15 15 15 16 16 16 16 16 16 15 16 16 16 16 15 15 16 16 16 16 16 16 16 16 16 17 17 17 17 17 17 17 17 17 17 17 17
14 14 14 14 14 14 14 14 14 14 14 14 14 14 15 15 15 14 14 14 14 14 14 14 14 14 15 15 15 15 15 15 16 16 15 15 15 16 16 16 15 15 15 15 15 15 15 15 14 14 15 16 16 16 16 16 16 16 16 16 17 17 16
15 14 15 14 14 14 14 14 14 14 14 14 14 15 15 15 15 14 14 14 14 14 14 14 14 14 15 15 15 15 15 15 15 15 15 15 15 15 15 15 15 14 14 14 14 15 15 14 14 14 14 15 15 15 15 15 15 15 16 16 16 16 16
15 15 14 14 14 14 14 14 14 14 14 14 14 14 15 15 15 14 14 14 14 14 14 14 15 15 15 15 15 14 14 14 14 15 15 15 15 15 15 14 14 14 14 14 14 15 15 14 14 14 14 14 14 15 15 15 15 15 16 16 15 15 16
15 15 14 14 14 14 14 14 14 14 14 14 14 14 14 14 14 14 14 14 14 14 15 15 15 15 15 15 15 15 15 15 15 15 15 15 15 15 15 15 15 15 14 14 14 14 14 14 15 15 15 14 14 14 14 14 14 15 15 15 15 15 15
15 15 14 14 14 14 14 14 14 14 14 14 14 14 14 14 14 14 14 14 14 14 15 15 15 15 15 15 15 15 15 15 15 16 16 16 16 16 15 16 16 16 15 15 15 15 15 15 15 15 15 15 14 14 14 14 14 14 14 14 14 15 15
15 15 14 14 14 14 14 14 14 14 14 14 14 14 14 14 14 14 13 13 13 14 14 15 15 15 15 15 15 15 15 15 15 15 16 16 16 16 15 15 16 16 16 16 15 15 15 15 15 15 15 15 15 14 14 14 14 14 14 14 14 14 14
15 15 15 15 14 14 15 14 14 14 14 14 14 14 15 15 14 14 14 14 14 14 15 15 15 15 15 15 15 15 15 15 15 15 15 15 15 16 15 15 15 15 15 15 15 15 15 15 15 15 15 15 15 15 15 14 14 14 14 14 14 13 13
15 15 14 14 14 14 15 14 14 14 14 14 14 14 14 14 14 14 14 14 14 14 15 15 15 15 14 14 14 14 14 14 14 14 14 15 15 15 15 15 15 15 15 15 15 15 15 15 15 15 15 15 15 15 15 14 14 14 14 14 14 14 14
14 14 14 14 14 14 14 14 14 14 14 14 14 14 14 14 14 14 14 14 14 14 15 15 15 14 14 14 14 14 14 13 13 13 14 14 14 14 14 14 14 14 14 14 14 15 15 15 15 15 15 15 15 15 14 14 14 13 13 13 13 13 14
14 15 14 14 14 14 14 14 14 14 14 14 14 14 14 14 14 14 14 14 14 14 14 14 14 14 14 14 14 14 14 13 13 13 13 13 13 13 13 14 14 14 14 14 14 14 14 14 15 15 15 15 15 15 14 14 13 13 13 13 13 13 13
Height
1514 1514 1515 1516 1516 1517 1518 1520 1521 1522 1523 1524 1525 1526 1528 1530 1532 1534 1536 1538 1539 1541 1542 1544 1546 1548 1549 1551 1553 1555 1556 1557 1559 1560 1561 1562 1563 1564 1564 1565 1566 1567 1568 1569 1569 1570 1571 1572 1573 1573 1574 1574 1575 1575 1575 1575 1575 1576 1576 1576 1576 1576 1576
1513 1513 1513 1513 1514 1515 1516 1517 1518 1520 1521 1522 1523 1524 1526 1527 1530 1532 1534 1536 1537 1539 1541 1542 1544 1546 1548 1550 1552 1553 1555 1556 1557 1559 1560 1561 1562 1563 1564 1565 1565 1566 1567 1568 1569 1570 1570 1571 1572 1572 1573 1574 1574 1575 1575 1575 1575 1575 1575 1576 1576 1576 1576
1512 1512 1512 1512 1512 1513 1514 1515 1515 1516 1518 1520 1521 1522 1523 1525 1527 1530 1532 1534 1536 1538 1539 1541 1543 1545 1547 1549 1550 1552 1554 1555 1556 1557 1558 1559 1561 1562 1563 1564 1565 1565 1566 1567 1568 1569 1569 1570 1571 1571 1572 1573 1574 1574 1575 1575 1575 1575 1575 1575 1575 1575 1575
1511 1511 1510 1510 1510 1511 1512 1513 1513 1514 1515 1517 1519 1519 1520 1522 1525 1527 1530 1532 1534 1536 1538 1540 1542 1543 1545 1547 1549 1551 1552 1554 1555 1556 1557 1558 1559 1561 1562 1563 1564 1564 1565 1566 1567 1568 1568 1569 1570 1570 1571 1572 1573 1573 1574 1575 1575 1575 1575 1575 1575 1575 1575
1510 1510 1509 1508 1508 1510 1511 1511 1511 1511 1513 1515 1517 1518 1518 1520 1523 1525 1528 1531 1533 1535 1536 1538 1540 1542 1544 1546 1547 1549 1550 1552 1553 1554 1556 1557 1558 1560 1560 1561 1562 1563 1564 1565 1566 1567 1567 1568 1569 1569 1570 1570 1571 1572 1573 1573 1574 1574 1574 1574 1574 1574 1574
1510 1509 1509 1507 1507 1509 1510 1511 1509 1509 1512 1514 1515 1517 1517 1519 1521 1523 1526 1529 1531 1534 1535 1537 1539 1541 1542 1544 1546 1548 1549 1550 1552 1553 1555 1556 1557 1558 1559 1560 1561 1561 1562 1563 1564 1565 1566 1567 1567 1568 1568 1569 1570 1570 1571 1572 1572 1572 1573 1573 1573 1573 1574
1509 1508 1509 1507 1506 1507 1509 1511 1512 1510 1511 1513 1513 1515 1516 1517 1520 1522 1525 1528 1530 1532 1534 1536 1538 1540 1541 1543 1545 1547 1548 1549 1550 1552 1553 1554 1555 1556 1557 1558 1559 1560 1561 1562 1563 1564 1564 1565 1566 1566 1567 1568 1568 1569 1569 1570 1570 1570 1571 1571 1572 1572 1573
1508 1508 1508 1507 1506 1506 1507 1509 1512 1514 1513 1512 1511 1512 1513 1515 1517 1520 1524 1527 1529 1532 1534 1535 1537 1539 1541 1542 1544 1545 1546 1548 1549 1550 1551 1553 1553 1554 1555 1556 1558 1559 1560 1561 1561 1562 1563 1564 1564 1565 1566 1567 1567 1568 1568 1568 1569 1569 1569 1569 1570 1571 1571
1507 1507 1507 1506 1505 1505 1505 1505 1508 1512 1513 1511 1509 1509 1511 1513 1515 1518 1522 1525 1528 1531 1533 1536 1539 1540 1541 1542 1543 1544 1545 1546 1548 1549 1550 1551 1552 1553 1554 1555 1556 1558 1559 1559 1560 1561 1562 1563 1564 1565 1565 1566 1566 1567 1567 1568 1568 1568 1568 1568 1568 1569 1569
1506 1505 1504 1504 1503 1503 1504 1503 1503 1506 1510 1511 1509 1508 1509 1511 1513 1517 1520 1524 1526 1528 1531 1535 1538 1540 1541 1541 1542 1543 1544 1545 1546 1548 1548 1549 1550 1551 1552 1554 1555 1556 1557 1558 1559 1559 1560 1561 1562 1563 1563 1563 1563 1564 1565 1566 1566 1566 1566 1567 1567 1567 1567
1505 1504 1503 1503 1503 1503 1502 1501 1501 1501 1504 1508 1508 1508 1510 1510 1512 1515 1517 1521 1523 1525 1528 1530 1533 1535 1537 1539 1541 1542 1544 1545 1546 1547 1548 1548 1549 1550 1551 1553 1554 1555 1555 1556 1557 1558 1558 1559 1560 1560 1560 1561 1561 1562 1563 1563 1564 1564 1565 1565 1565 1566 1566
1505 1503 1502 1502 1502 1502 1501 1500 1500 1499 1500 1503 1506 1509 1510 1511 1511 1513 1515 1518 1520 1522 1525 1527 1530 1532 1532 1535 1539 1542 1543 1544 1545 1546 1547 1548 1549 1550 1551 1552 1553 1553 1554 1554 1555 1555 1556 1556 1557 1558 1558 1559 1559 1560 1561 1561 1562 1563 1563 1563 1564 1564 1564
1505 1503 1502 1501 1500 1501 1501 1500 1499 1499 1499 1500 1504 1507 1510 1511 1511 1511 1513 1515 1517 1520 1523 1525 1528 1529 1529 1532 1537 1540 1541 1542 1543 1544 1546 1547 1548 1549 1549 1550 1551 1552 1552 1553 1553 1553 1554 1554 1555 1556 1557 1558 1558 1558 1559 1560 1560 1561 1561 1562 1562 1562 1562
1506 1504 1502 1501 1500 1499 1500 1500 1499 1499 1499 1500 1502 1505 1507 1509 1510 1511 1512 1513 1515 1518 1521 1523 1525 1526 1527 1530 1533 1537 1539 1540 1541 1542 1544 1545 1546 1546 1547 1547 1548 1549 1550 1550 1550 1551 1552 1553 1553 1554 1555 1556 1557 1557 1558 1558 1558 1558 1559 1560 1560 1560 1560
1506 1504 1503 1501 1500 1499 1499 1499 1499 1499 1500 1500 1501 1503 1504 1506 1508 1510 1511 1513 1514 1516 1518 1520 1522 1523 1526 1527 1528 1533 1537 1539 1540 1541 1542 1543 1543 1544 1545 1546 1547 1547 1548 1548 1548 1549 1550 1551 1552 1553 1553 1554 1555 1555 1556 1556 1556 1556 1557 1557 1558 1557 1558
1506 1505 1504 1502 1501 1500 1499 1499 1498 1498 1498 1498 1499 1501 1502 1504 1506 1507 1509 1511 1512 1513 1514 1517 1518 1520 1523 1524 1525 1530 1534 1536 1537 1539 1540 1541 1541 1542 1543 1545 1545 1546 1547 1547 1547 1548 1548 1549 1550 1552 1552 1552 1553 1553 1553 1554 1554 1554 1555 1555 1555 1555 1555
1506 1506 1505 1503 1501 1500 1499 1499 1498 1498 1497 1497 1497 1497 1498 1501 1503 1505 1507 1509 1510 1511 1511 1513 1515 1517 1520 1522 1524 1528 1531 1532 1535 1537 1538 1539 1539 1539 1541 1542 1543 1544 1545 1545 1545 1545 1546 1547 1548 1549 1549 1550 1550 1551 1551 1551 1552 1552 1553 1553 1553 1553 1553
1507 1506 1505 1503 1502 1500 1499 1499 1498 1498 1497 1495 1494 1491 1491 1493 1496 1500 1505 1508 1508 1510 1511 1512 1513 1516 1518 1519 1522 1525 1528 1530 1532 1533 1535 1537 1537 1538 1538 1539 1540 1541 1542 1543 1542 1542 1543 1544 1545 1545 1546 1547 1547 1548 1549 1549 1550 1550 1550 1551 1551 1551 1551
1507 1506 1505 1504 1502 1501 1500 1500 1499 1498 1497 1495 1493 1489 1486 1486 1488 1493 1500 1504 1506 1508 1510 1511 1512 1514 1516 1517 1520 1523 1526 1528 1529 1531 1532 1534 1535 1536 1536 1537 1538 1539 1539 1540 1540 1540 1540 1541 1542 1542 1543 1544 1545 1545 1546 1546 1547 1547 1548 1548 1549 1549 1549
1508 1506 1505 1504 1503 1502 1501 1500 1500 1499 1498 1496 1494 1490 1487 1487 1489 1492 1496 1500 1504 1507 1509 1510 1512 1513 1514 1515 1518 1521 1524 1526 1527 1528 1530 1531 1532 1533 1533 1534 1535 1536 1537 1537 1537 1537 1537 1538 1539 1539 1540 1541 1541 1542 1543 1544 1544 1545 1545 1546 1546 1547 1547
1508 1507 1505 1504 1503 1502 1502 1501 1500 1499 1498 1497 1495 1493 1491 1491 1493 1494 1495 1497 1501 1504 1507 1509 1512 1514 1514 1515 1516 1519 1521 1523 1524 1526 1527 1528 1529 1530 1531 1532 1532 1533 1533 1534 1534 1534 1535 1535 1536 1536 1537 1538 1538 1539 1540 1541 1542 1542 1543 1543 1544 1544 1544
1510 1508 1507 1504 1503 1503 1502 1501 1501 1500 1499 1498 1497 1496 1494 1494 1495 1496 1496 1497 1499 1502 1504 1508 1512 1514 1514 1514 1516 1518 1520 1521 1522 1523 1524 1525 1527 1528 1528 1529 1530 1530 1531 1531 1531 1532 1532 1533 1533 1534 1535 1535 1535 1536 1536 1537 1538 1539 1540 1540 1541 1541 1542
1511 1510 1508 1506 1505 1503 1502 1501 1501 1500 1500 1500 1499 1498 1496 1496 1497 1497 1499 1500 1501 1502 1505 1508 1511 1512 1513 1513 1515 1517 1518 1519 1520 1521 1522 1523 1524 1525 1526 1527 1528 1528 1528 1528 1529 1529 1530 1530 1531 1532 1532 1531 1531 1532 1533 1534 1535 1536 1537 1538 1538 1539 1539
1512 1512 1510 1508 1506 1504 1502 1502 1501 1501 1501 1501 1500 1499 1498 1498 1498 1498 1500 1502 1503 1503 1505 1507 1509 1510 1511 1513 1515 1516 1517 1518 1518 1519 1520 1521 1522 1522 1523 1524 1525 1525 1526 1526 1526 1526 1527 1528 1529 1529 1528 1528 1528 1529 1530 1531 1532 1533 1534 1535 1536 1537 1537
1513 1513 1511 1509 1507 1505 1504 1503 1502 1502 1502 1502 1501 1501 1500 1499 1499 1499 1499 1500 1502 1503 1504 1505 1507 1508 1510 1512 1513 1514 1515 1515 1516 1517 1518 1519 1519 1520 1521 1522 1523 1523 1523 1523 1523 1523 1524 1525 1525 1525 1524 1524 1525 1525 1526 1528 1528 1530 1532 1533 1534 1535 1535
1514 1514 1513 1511 1509 1507 1506 1505 1504 1503 1503 1503 1503 1502 1502 1501 1500 1499 1499 1500 1502 1503 1504 1505 1506 1507 1509 1510 1511 1512 1513 1513 1514 1515 1516 1518 1518 1519 1519 1520 1520 1520 1520 1520 1520 1520 1521 1521 1522 1521 1521 1521 1522 1522 1523 1524 1525 1527 1529 1530 1531 1533 1533
1515 1515 1515 1513 1510 1508 1508 1508 1507 1505 1504 1504 1504 1504 1503 1503 1501 1501 1501 1502 1503 1504 1505 1506 1506 1507 1509 1509 1510 1511 1512 1512 1513 1514 1516 1517 1517 1517 1518 1518 1518 1518 1518 1518 1518 1517 1517 1517 1518 1518 1519 1519 1519 1520 1521 1522 1523 1525 1527 1528 1529 1531 1531
1516 1516 1516 1515 1513 1511 1510 1510 1509 1508 1507 1507 1506 1505 1505 1504 1504 1504 1504 1504 1505 1506 1508 1508 1508 1508 1509 1510 1511 1512 1512 1512 1513 1514 1515 1516 1517 1517 1517 1517 1517 1517 1516 1516 1515 1515 1515 1515 1515 1516 1517 1518 1518 1519 1520 1521 1522 1523 1524 1525 1527 1529 1530
1517 1518 1518 1517 1517 1515 1513 1512 1512 1511 1510 1509 1509 1508 1507 1507 1506 1506 1506 1506 1507 1509 1510 1510 1510 1511 1511 1512 1512 1513 1513 1514 1514 1514 1516 1517 1517 1517 1518 1518 1518 1517 1516 1515 1515 1515 1515 1516 1517 1517 1517 1517 1518 1519 1519 1520 1520 1522 1523 1524 1526 1528 1528
1518 1519 1520 1520 1520 1518 1517 1516 1515 1513 1513 1513 1512 1511 1511 1510 1509 1508 1508 1508 1509 1511 1511 1512 1513 1513 1514 1514 1515 1515 1515 1515 1515 1516 1516 1517 1517 1518 1518 1519 1518 1517 1517 1517 1516 1516 1516 1517 1519 1519 1518 1518 1519 1519 1520 1520 1520 1521 1523 1524 1525 1526 1527
1519 1521 1522 1522 1522 1521 1520 1519 1517 1517 1516 1516 1516 1515 1515 1514 1512 1511 1511 1512 1513 1513 1514 1514 1515 1516 1516 1517 1517 1517 1517 1517 1517 1517 1517 1517 1518 1519 1519 1519 1519 1518 1518 1518 1518 1518 1518 1519 1520 1520 1519 1519 1520 1520 1521 1522 1521 1521 1522 1524 1525 1525 1526
1521 1522 1522 1523 1522 1523 1523 1522 1521 1520 1519 1519 1519 1519 1519 1518 1517 1516 1516 1517 1517 1517 1518 1518 1518 1518 1519 1519 1519 1519 1519 1519 1518 1519 1519 1519 1520 1520 1520 1520 1520 1519 1520 1520 1520 1520 1520 1520 1521 1521 1521 1521 1521 1522 1522 1523 1522 1523 1523 1524 1525 1525 1526
1521 1522 1523 1523 1523 1524 1525 1524 1524 1522 1521 1521 1521 1521 1521 1522 1521 1521 1521 1521 1522 1522 1522 1522 1522 1521 1522 1522 1521 1522 1521 1521 1520 1520 1521 1521 1521 1521 1521 1521 1521 1521 1521 1522 1522 1522 1523 1523 1523 1523 1523 1523 1523 1524 1524 1524 1524 1524 1525 1526 1526 1526 1527
1521 1522 1523 1523 1523 1524 1525 1526 1526 1525 1524 1524 1524 1523 1523 1523 1524 1524 1525 1525 1525 1526 1526 1525 1525 1524 1524 1524 1523 1523 1523 1523 1523 1523 1522 1523 1523 1522 1522 1523 1523 1523 1523 1524 1524 1525 1525 1526 1525 1525 1525 1525 1525 1525 1526 1526 1526 1526 1527 1527 1527 1528 1528
1522 1523 1523 1524 1525 1526 1526 1527 1527 1527 1526 1526 1526 1526 1526 1525 1526 1527 1527 1527 1528 1528 1527 1527 1527 1526 1526 1526 1525 1525 1525 1525 1525 1525 1525 1525 1525 1524 1524 1525 1525 1525 1526 1526 1527 1527 1527 1528 1527 1527 1527 1527 1527 1528 1528 1528 1528 1528 1529 1529 1529 1529 1530
1523 1524 1524 1525 1526 1527 1526 1527 1528 1528 1528 1528 1528 1528 1528 1528 1528 1529 1529 1529 1530 1529 1529 1529 1529 1529 1528 1528 1528 1527 1527 1527 1527 1527 1527 1527 1527 1527 1527 1527 1528 1528 1528 1529 1529 1530 1530 1530 1529 1529 1530 1530 1530 1530 1530 1530 1530 1530 1530 1530 1530 1531 1531
1525 1524 1525 1526 1528 1528 1528 1528 1529 1529 1529 1530 1530 1530 1529 1530 1531 1531 1532 1532 1532 1532 1531 1531 1531 1531 1531 1530 1530 1530 1530 1529 1529 1529 1529 1530 1530 1530 1530 1530 1531 1531 1531 1532 1532 1532 1532 1532 1532 1532 1532 1532 1532 1531 1531 1531 1531 1532 1532 1532 1532 1532 1533
1525 1525 1526 1527 1529 1530 1529 1529 1530 1531 1531 1531 1531 1531 1531 1531 1532 1533 1533 1534 1534 1534 1533 1533 1533 1533 1532 1533 1533 1532 1532 1532 1532 1531 1532 1532 1532 1533 1533 1533 1534 1534 1534 1534 1535 1534 1534 1534 1534 1534 1534 1534 1534 1533 1533 1533 1533 1533 1533 1533 1534 1534 1535
Wind_Speed
21 24 24 26 26 20 21 32 37 36 35 34 32 33 32 30 29 27 25 25 25 25 26 28 30 32 32 32 32 31 30 28 25 24 24 24 23 21 20 20 20 19 18 17 15 14 14 14 13 11 10 12 13 11 11 12 11 10 10 11 11 11 10
14 22 26 28 29 24 20 28 36 36 35 36 35 34 33 32 32 31 28 26 25 25 26 27 29 30 30 31 32 32 30 27 25 25 24 23 24 23 22 21 20 19 18 18 16 14 13 13 13 10 9 10 10 8 9 10 11 10 10 11 11 11 11
9 13 20 25 31 30 23 23 32 37 37 36 36 35 34 34 33 32 31 29 26 25 26 28 28 29 29 30 31 33 31 28 27 27 25 24 24 25 24 22 20 19 19 18 16 14 14 13 13 12 11 10 10 10 9 10 11 12 11 11 11 11 11
10 9 12 16 22 26 25 25 30 36 38 35 36 37 36 34 34 33 32 31 28 26 26 28 29 28 30 30 30 32 32 30 28 28 27 25 24 24 24 22 21 20 19 18 15 13 13 13 12 12 13 13 12 12 12 12 12 12 12 12 12 12 11
12 11 11 14 16 18 19 22 28 34 37 35 35 38 37 35 34 33 33 32 30 26 25 27 29 29 30 30 30 31 32 31 29 28 27 26 24 23 23 22 20 19 19 17 15 13 13 13 12 12 13 14 14 13 13 13 12 12 12 13 13 12 12
15 13 11 12 17 19 17 14 22 32 34 34 35 37 37 35 34 34 33 33 32 27 24 25 29 30 30 30 30 30 31 31 29 28 26 25 24 22 21 20 19 18 17 16 14 14 14 14 14 14 14 14 13 13 13 13 13 13 13 12 12 12 12
14 13 11 9 13 20 19 15 16 23 25 31 37 36 36 36 34 34 33 32 32 29 25 25 27 29 30 30 30 30 30 30 29 28 26 25 24 23 21 20 19 18 17 17 16 15 16 17 17 16 16 16 15 13 12 12 12 13 14 13 12 11 11
14 15 13 10 10 15 19 16 15 17 17 26 36 36 37 37 35 35 34 32 31 30 28 26 26 28 30 30 30 30 30 29 28 27 26 25 24 23 22 20 19 18 18 19 19 18 19 19 20 19 17 17 17 15 14 13 11 11 13 12 10 9 9
14 15 14 12 10 11 16 14 15 20 18 18 28 33 35 37 35 34 35 34 32 30 29 27 26 27 29 29 30 30 29 29 28 27 26 25 25 24 22 21 19 17 16 17 17 18 18 17 17 19 19 17 17 17 16 15 13 12 13 12 12 12 12
15 13 13 11 9 7 10 10 15 23 19 12 16 25 31 34 34 33 33 34 33 31 29 26 24 25 29 30 30 30 29 29 28 27 26 25 25 24 22 21 19 17 15 14 14 15 16 15 15 17 18 18 18 18 18 18 17 17 17 16 17 17 18
15 12 12 9 9 8 4 7 11 21 22 13 9 15 24 31 33 32 32 33 32 31 31 28 24 23 26 30 30 29 29 29 28 26 24 23 23 23 22 20 19 18 17 16 15 15 15 16 18 19 19 19 17 17 18 19 20 21 20 20 20 20 22
14 11 11 10 10 9 3 3 6 12 20 21 14 12 18 26 30 31 31 32 32 32 32 31 27 25 27 29 30 29 28 28 27 25 22 19 18 19 20 20 19 18 18 17 17 17 17 18 20 21 20 19 17 16 18 19 21 22 22 21 22 22 22
12 10 9 10 10 9 5 0 3 4 9 17 19 16 16 20 25 30 32 32 32 32 32 31 28 29 30 28 28 30 29 28 27 25 22 18 16 16 18 21 21 20 20 21 21 21 21 21 22 21 20 19 17 17 18 19 20 22 22 22 22 23 22
11 10 9 9 11 11 8 5 1 3 5 11 17 21 22 21 23 28 32 33 32 31 33 31 28 30 31 28 28 31 31 30 28 27 25 23 22 20 18 21 23 22 21 22 23 25 24 25 24 21 19 20 20 19 19 20 21 22 21 21 21 22 22
11 11 12 11 10 10 9 8 6 2 2 7 12 16 20 22 25 28 31 32 32 32 35 32 27 29 33 30 29 31 32 31 29 27 27 28 27 25 21 21 23 24 22 20 20 22 22 24 26 23 20 21 20 20 21 21 21 21 21 21 20 21 21
11 11 13 13 11 10 8 7 8 5 2 1 5 11 16 20 25 29 30 32 33 34 35 32 27 30 33 30 28 29 31 31 29 26 25 26 26 25 24 22 22 24 24 23 22 20 18 21 24 23 22 22 21 21 23 22 21 21 21 21 19 19 19
10 10 12 14 13 11 8 6 6 6 4 4 2 8 16 21 26 30 30 29 31 31 30 29 28 30 33 28 25 27 29 28 27 25 24 23 23 22 22 21 21 21 22 23 23 22 19 19 20 21 21 21 20 20 21 21 21 21 21 20 18 17 17
9 9 10 12 13 12 10 7 6 7 6 6 5 5 14 25 30 32 29 27 25 23 24 26 28 30 30 25 23 27 28 25 24 24 24 24 23 22 21 20 20 20 21 22 21 20 19 19 20 21 20 19 19 20 21 21 21 20 20 19 18 17 16
8 8 9 9 10 11 10 9 8 8 7 6 6 4 10 28 37 35 32 28 23 21 24 26 27 28 26 23 23 27 26 23 22 22 22 24 24 24 23 21 21 21 22 22 22 21 21 21 21 22 21 20 20 21 22 22 21 20 19 19 18 17 15
6 6 7 7 8 9 9 8 7 7 6 6 5 6 14 25 30 30 29 28 24 23 24 23 22 22 23 22 23 24 23 22 21 20 20 21 22 23 23 24 24 23 23 23 23 22 22 21 22 22 22 21 22 22 23 22 21 20 19 18 18 17 15
7 6 7 7 8 9 9 8 6 6 4 4 5 7 15 20 21 23 25 25 24 23 21 19 19 20 20 21 21 22 21 21 20 20 20 20 20 21 22 24 24 23 23 24 23 23 22 21 22 22 21 21 22 23 23 23 22 21 20 20 20 19 17
7 9 9 9 8 7 7 6 5 4 3 2 4 7 12 14 15 18 20 20 19 18 16 16 18 19 18 17 17 19 19 20 20 19 20 20 20 21 22 23 22 21 22 22 22 21 21 20 20 19 19 20 22 23 23 24 23 23 22 22 21 20 18
9 11 11 11 9 6 6 5 4 5 4 2 4 7 10 12 12 14 16 16 15 14 13 14 15 15 14 13 14 16 18 19 20 19 19 20 20 21 21 22 21 21 22 22 22 22 21 19 18 17 18 21 22 22 22 23 24 24 23 22 21 20 19
10 11 12 12 9 6 6 6 3 2 2 3 6 7 8 9 11 13 15 16 16 15 13 13 13 12 13 13 14 16 17 17 17 17 17 17 18 19 20 20 21 21 21 21 21 22 21 19 17 18 21 23 23 23 22 23 24 25 24 23 21 20 19
9 10 11 12 10 9 8 7 5 4 4 5 7 8 8 8 9 12 15 16 17 16 15 13 12 12 13 14 15 15 15 15 16 16 16 16 16 16 16 17 18 19 19 20 20 21 20 19 18 21 24 25 24 24 24 25 26 26 24 22 20 18 17
6 8 9 10 11 11 11 9 8 8 8 8 9 8 7 7 7 11 14 15 14 15 13 12 11 11 12 13 14 14 13 13 14 14 14 13 13 13 14 14 16 17 18 18 18 18 19 19 20 22 25 25 26 27 26 27 26 24 21 20 18 16 15
7 8 10 12 13 13 13 13 13 13 13 12 11 9 8 7 8 13 16 16 15 15 15 12 11 10 9 9 10 11 11 10 9 9 9 9 9 9 8 8 9 11 11 11 12 13 15 18 21 22 25 27 28 28 27 26 23 20 19 18 15 13 14
10 9 11 15 17 17 17 17 17 17 17 16 15 14 13 12 14 17 20 20 20 19 17 15 14 14 13 12 12 11 10 10 9 8 8 7 6 5 5 4 3 2 1 0 2 4 8 12 17 21 25 27 27 25 23 21 19 17 15 14 13 12 13
12 11 13 17 19 21 24 24 22 22 21 19 19 19 18 18 19 20 21 21 21 19 18 18 18 17 16 16 15 15 13 12 12 10 9 9 8 7 6 6 6 7 8 8 7 6 5 5 7 13 18 20 19 17 15 15 16 15 13 13 13 13 13
14 15 14 17 21 24 26 28 28 28 27 25 24 23 22 22 22 21 21 21 19 18 18 19 19 19 19 19 18 18 17 16 15 14 13 12 10 9 8 7 7 8 10 10 10 10 10 10 8 6 7 7 7 7 5 6 8 10 10 12 14 14 14
15 16 15 17 21 24 25 26 27 29 29 27 26 26 26 26 25 24 23 21 19 19 19 19 19 20 21 21 20 20 19 19 19 18 17 16 15 14 14 13 12 13 14 13 14 13 13 13 12 10 10 11 10 8 7 6 6 7 7 7 8 9 11
14 16 16 17 20 21 22 22 23 25 25 24 23 23 23 25 27 27 26 24 22 21 20 20 20 22 22 21 21 20 20 20 20 19 18 18 18 18 18 17 17 17 17 16 16 16 16 15 14 12 12 12 12 12 11 10 10 10 9 6 4 6 6
16 18 18 16 17 18 18 19 20 22 24 22 20 19 19 20 22 25 24 23 23 23 22 21 21 22 23 23 22 22 21 21 21 21 20 20 20 21 21 20 20 19 19 18 17 17 17 16 15 14 14 14 14 14 13 13 12 12 11 10 9 8 7
19 20 19 17 16 17 18 18 19 20 21 20 18 17 17 18 20 20 20 20 20 21 23 23 23 23 24 23 23 23 23 23 23 22 22 22 22 23 23 22 22 21 21 20 19 18 17 16 16 15 15 15 16 15 15 16 15 13 13 13 12 11 10
22 21 20 19 19 19 19 18 18 18 18 18 17 17 18 19 19 18 17 16 16 17 19 21 22 23 24 25 25 26 26 26 26 25 24 24 23 24 24 24 23 23 22 22 21 19 18 16 16 16 15 15 16 16 16 17 16 15 15 14 13 14 14
23 22 20 19 18 18 18 17 16 16 16 16 16 18 20 20 20 18 16 14 13 13 15 16 19 21 23 24 26 27 27 27 27 26 26 25 25 25 25 25 25 24 24 23 22 21 20 18 18 17 15 15 15 15 15 16 16 16 16 15 14 14 14
19 20 19 18 17 17 17 16 15 15 16 16 17 19 21 22 21 20 17 15 13 13 13 13 16 19 20 20 21 22 23 24 25 25 25 24 24 24 24 24 24 24 24 24 23 22 21 19 18 18 16 15 15 15 16 16 16 16 15 15 15 14 14
15 15 15 15 16 17 17 16 15 15 16 17 18 19 20 20 20 19 18 16 14 14 14 13 15 17 18 18 17 17 17 19 21 22 22 21 21 22 22 22 22 22 22 22 22 21 20 19 18 17 16 15 15 15 15 15 15 15 14 14 14 14 13
Wind_Direction
243 240 234 223 220 218 211 206 201 197 196 197 199 200 201 206 207 207 208 209 212 211 208 204 201 202 201 199 199 201 204 205 205 206 206 208 211 212 216 220 222 223 221 220 221 220 217 213 215 225 231 228 227 228 228 229 233 234 237 242 243 244 244
258 243 240 235 230 227 218 208 204 202 200 198 199 201 203 206 208 209 209 211 214 214 212 209 205 203 203 202 201 202 205 205 201 202 206 211 215 215 217 222 223 224 224 225 228 228 222 213 213 224 232 231 233 238 240 242 243 241 241 242 244 247 247
311 267 250 243 236 232 223 210 209 208 204 201 200 201 205 208 210 212 212 212 214 214 214 213 209 205 203 203 202 202 205 204 201 204 208 212 216 217 221 225 227 228 228 227 229 230 231 227 222 223 227 238 248 250 255 259 253 248 244 244 247 249 251
332 313 288 265 248 241 231 218 212 207 204 204 202 200 204 208 210 213 215 216 215 215 215 213 211 208 204 204 203 203 205 206 206 208 211 214 216 218 220 224 226 228 228 225 218 216 224 230 230 227 228 239 248 249 256 265 260 249 244 246 248 248 249
333 326 308 280 266 268 256 232 217 207 205 207 205 202 204 208 211 214 216 217 217 218 218 215 213 210 207 207 206 206 207 210 210 211 214 216 218 219 220 220 220 221 224 222 213 208 214 221 229 231 231 237 244 247 252 259 257 247 242 246 248 246 246
332 330 323 291 266 265 274 257 218 206 207 210 207 204 205 206 208 212 215 217 218 219 218 215 213 211 210 209 209 209 209 212 214 215 216 217 218 221 223 222 220 218 217 216 214 215 219 223 226 229 233 238 244 249 252 255 253 247 244 246 249 250 249
330 323 321 309 269 248 256 271 231 207 210 213 209 206 205 204 203 203 206 209 212 214 215 216 216 213 212 211 212 212 211 213 216 216 217 217 219 223 225 226 226 223 218 215 216 222 226 229 228 230 235 240 244 249 254 260 258 252 249 248 250 253 253
330 326 317 305 282 242 240 256 240 223 227 215 208 208 207 205 205 203 204 207 206 206 207 211 215 216 215 214 214 216 215 214 216 217 217 217 219 222 223 225 227 227 225 222 222 225 228 230 229 231 236 239 242 248 254 260 261 256 250 244 245 252 256
328 332 329 311 295 256 234 235 218 220 242 230 208 208 207 206 209 209 210 213 210 208 208 209 212 216 219 218 217 218 218 218 218 219 220 220 221 222 221 221 221 222 226 228 228 227 230 232 229 230 236 237 239 244 250 253 255 253 248 242 245 251 254
338 334 332 319 313 292 245 231 206 207 232 250 213 206 204 205 210 210 209 211 211 212 213 214 216 218 221 223 222 220 220 221 222 222 223 223 222 222 220 220 219 217 222 229 231 228 229 232 232 232 236 236 234 237 240 242 247 251 250 248 251 253 255
349 341 336 329 331 332 271 235 213 205 216 238 241 219 209 207 209 210 210 211 212 212 211 213 218 220 221 224 227 226 223 223 224 224 224 225 225 224 221 220 221 221 222 227 231 231 231 233 237 239 239 239 239 238 239 240 245 251 252 252 254 256 257
354 350 351 347 342 342 324 225 223 212 213 223 237 237 220 214 212 210 211 212 214 214 212 212 214 214 216 218 223 227 225 223 224 225 225 226 226 226 225 222 221 221 222 226 230 234 236 235 237 241 243 244 245 245 245 244 245 249 253 255 259 261 261
355 357 357 349 346 345 348 318 211 214 209 215 224 232 231 227 220 214 213 214 216 217 216 214 212 212 214 216 219 222 221 218 218 220 222 224 223 223 222 220 221 226 231 235 237 238 238 238 239 241 243 245 248 251 251 249 248 249 252 258 263 263 263
1 2 355 347 353 355 356 8 48 193 192 203 216 229 235 235 228 219 216 216 217 220 218 214 212 213 213 213 217 221 219 216 215 215 217 221 223 222 216 210 214 225 233 237 239 238 237 239 241 242 241 244 249 253 253 254 255 255 257 262 265 264 265
9 12 7 360 360 3 2 359 356 344 206 199 206 219 227 227 224 220 219 217 216 218 216 212 214 216 213 210 213 217 219 218 216 216 217 221 224 225 222 215 213 220 226 230 235 237 237 239 241 241 242 244 247 250 253 257 261 261 263 265 266 266 266
9 11 13 10 1 1 8 0 353 2 28 164 203 216 220 221 220 217 217 217 215 214 213 213 218 217 212 208 209 213 218 217 215 217 217 219 223 225 225 224 220 224 230 234 237 240 239 239 239 239 242 245 246 248 253 259 262 263 265 264 263 265 262
12 4 6 12 8 359 1 9 12 22 39 38 342 239 226 221 218 215 214 213 211 211 212 215 217 211 206 205 207 214 217 214 213 217 215 213 217 220 221 223 223 226 232 237 241 245 245 242 241 242 244 246 246 248 253 258 259 261 264 262 258 257 255
19 13 8 14 17 10 359 353 7 20 20 15 356 289 235 220 211 206 204 201 200 202 204 205 205 202 200 198 201 209 213 211 212 219 219 216 216 218 221 224 224 224 226 231 238 243 245 244 245 248 249 249 247 247 251 253 254 258 261 258 253 253 255
21 22 25 21 17 19 10 352 349 2 13 20 21 32 200 206 203 198 195 195 195 198 199 197 196 195 193 190 194 201 205 208 213 216 218 220 220 222 224 225 226 227 231 235 239 241 243 245 248 251 252 252 250 249 249 250 251 254 255 251 248 250 254
32 30 45 40 22 22 20 7 347 336 357 31 38 85 145 175 187 187 188 193 195 197 200 199 196 194 189 185 190 197 200 206 213 214 214 217 221 225 228 230 232 234 239 243 244 244 244 245 246 248 250 252 252 250 249 248 248 250 249 243 241 244 250
54 55 61 58 40 24 17 18 6 329 329 45 67 102 127 144 157 162 171 181 183 183 189 193 195 196 189 181 186 195 201 205 210 214 218 221 223 227 231 234 237 239 241 243 244 244 246 247 248 248 248 249 250 250 249 248 246 246 245 240 238 241 247
71 78 70 63 53 26 10 19 37 27 357 38 92 111 124 132 139 145 153 163 164 160 163 172 182 189 189 187 193 201 205 208 210 216 221 226 230 232 234 237 241 243 244 244 245 246 247 249 251 251 249 249 249 249 248 247 245 243 240 237 237 239 241
85 87 76 68 61 39 32 40 53 59 50 63 107 117 125 135 145 151 152 155 158 159 162 170 179 184 184 192 205 210 211 213 218 223 226 229 232 234 236 239 242 245 246 248 250 251 251 252 254 254 252 251 250 249 248 246 243 240 237 235 235 238 239
98 91 77 71 68 59 67 78 88 89 72 89 98 98 108 131 155 165 161 159 164 173 178 179 182 185 186 193 207 213 214 215 222 228 231 232 234 237 240 243 245 247 249 249 251 252 252 250 250 251 250 248 247 247 245 243 241 238 236 235 235 237 240
103 96 81 76 79 78 81 90 103 124 137 117 98 89 92 111 141 154 149 146 153 163 173 180 183 187 192 198 207 214 218 221 226 231 233 237 241 245 249 250 250 250 249 249 249 249 249 246 245 249 251 248 243 241 238 237 238 236 234 234 234 236 239
115 114 97 89 90 88 88 92 100 108 109 106 106 106 108 120 132 130 127 127 129 132 139 154 171 181 189 197 202 209 215 219 224 228 231 235 241 246 251 254 253 252 251 251 252 251 249 245 242 244 248 245 240 236 233 231 233 232 228 227 227 230 237
125 119 99 92 92 92 93 94 93 93 92 95 104 111 121 137 131 115 114 118 117 112 113 122 137 148 159 173 184 192 201 205 206 209 211 215 224 229 234 242 248 251 252 253 254 253 250 246 241 239 241 241 237 232 228 228 229 224 216 215 217 220 227
131 113 92 89 91 95 98 98 95 93 93 92 96 101 110 122 122 114 110 107 104 103 107 111 114 119 126 135 143 150 158 160 158 158 154 149 148 148 134 111 95 88 75 266 262 253 243 240 233 223 222 226 226 223 222 223 223 215 207 209 215 217 220
136 128 106 95 92 93 95 95 95 95 94 92 91 92 97 103 106 107 105 100 98 101 105 107 109 113 116 118 121 125 129 131 131 128 122 114 112 114 107 90 82 81 77 74 76 89 118 160 189 194 199 205 210 213 217 218 213 205 202 213 223 226 228
133 132 120 103 96 94 92 91 91 90 89 88 87 86 88 91 93 95 96 96 99 101 101 102 103 103 102 101 102 103 104 104 104 102 99 96 95 99 100 96 94 93 88 84 87 96 104 102 100 119 141 150 164 180 196 207 198 189 198 219 226 226 229
137 132 127 114 102 95 92 90 88 86 83 81 81 81 83 85 88 90 91 92 94 94 94 95 97 96 96 96 96 96 97 96 95 93 92 90 89 90 91 90 89 90 91 90 92 97 99 96 93 93 93 93 99 106 107 106 116 137 169 209 215 205 209
156 138 130 123 109 99 96 93 88 86 82 79 78 79 81 84 86 88 91 91 90 90 91 93 95 95 94 94 94 95 96 96 95 93 92 92 90 89 88 88 88 89 90 90 90 92 94 95 94 92 91 93 95 97 101 104 104 112 128 140 134 140 154
166 145 136 132 120 110 106 100 96 94 91 88 85 82 83 88 89 88 89 90 89 88 90 93 95 95 95 94 93 93 91 90 89 89 89 88 86 85 84 84 84 86 87 87 87 88 90 92 92 90 90 93 95 94 95 97 98 101 106 108 106 110 118
155 148 143 138 129 123 117 108 104 103 100 97 93 86 86 94 99 96 93 91 90 88 87 89 93 95 94 93 93 91 89 86 85 84 84 84 83 82 81 79 78 79 79 79 78 79 82 85 86 87 90 92 93 94 94 94 95 98 101 103 103 104 113
135 138 136 130 125 125 121 113 109 108 104 100 98 94 93 95 100 101 99 96 94 87 80 83 90 93 93 93 92 91 89 86 84 81 80 79 79 79 78 76 75 75 75 75 74 74 75 77 78 80 84 89 95 99 100 98 96 96 99 103 102 101 106
124 125 125 125 125 123 120 116 113 108 103 100 100 99 96 93 92 94 97 99 96 85 78 81 88 90 91 93 94 92 89 86 83 81 79 77 75 74 74 75 74 73 72 73 73 73 73 74 76 78 80 86 94 100 102 98 95 94 95 96 97 97 98
125 123 122 121 120 118 115 114 112 106 103 104 104 102 97 92 89 89 93 98 99 94 91 92 91 89 88 90 93 93 90 88 85 82 80 77 73 71 71 72 73 72 71 69 69 71 72 72 74 78 82 86 91 96 98 97 95 94 93 90 89 90 90
136 137 133 126 122 118 114 112 112 110 108 108 108 107 104 100 95 92 91 94 96 96 95 93 91 87 83 83 86 88 90 91 89 86 82 78 75 72 70 69 70 70 69 68 68 69 70 70 71 74 78 83 89 95 99 99 97 93 90 87 85 85 85